カタログに戻る

STARLINK-37388

運用中通信SSO
NORAD 68860·PAYLOAD·🇺🇸 United States

打ち上げ Apr 26, 2026 から Vandenberg Space Force Base

Loading…

次のパス (今後24時間)

TLE

最新Source: CelesTrak SupGP

元期: Sep 14, 2026, 22:58 UTC

1 68860C 26094X   26257.95743056  .00042271  00000+0  13122-2 0  2573
2 68860  97.2839 271.2247 0001619  86.8542 234.9766 15.33416731    15

AllMySatでSTARLINK-37388をリアルタイム追跡

Download on the App Store